• In Netherlands
  • List of Countries
  • For 7 days
  • Water Temperature
  • Satellite Maps
  • Weather Map
  • Weather Widgets
  • user-avatar
    Login

    Hourly Weather Blagoevgrad

    Today, 24 September, Sunday

    Time Temperature Precipitation Wind Pressure Humidity
    00:00 +12°C° 0 mm 1 mps 723 mmHg 65%
    01:00 +12°C° 0 mm 1 mps 723 mmHg 66%
    02:00 +11°C° 0 mm 1 mps 723 mmHg 66%
    03:00 +11°C° 0 mm 1 mps 723 mmHg 66%
    04:00 +11°C° 0 mm 1 mps 723 mmHg 66%
    05:00 +11°C° 0 mm 1 mps 723 mmHg 66%
    06:00 +13°C° 0 mm 1 mps 723 mmHg 60%
    07:00 +15°C° 0 mm 1 mps 724 mmHg 54%
    08:00 +15°C° 0 mm 0 mps 724 mmHg 49%
    09:00 +20°C° 0 mm 1 mps 724 mmHg 43%
    10:00 +22°C° 0 mm 1 mps 724 mmHg 38%
    11:00 +24°C° 0 mm 1 mps 724 mmHg 32%
    12:00 +25°C° 0 mm 1 mps 724 mmHg 31%
    13:00 +25°C° 0 mm 2 mps 724 mmHg 30%
    14:00 +26°C° 0 mm 2 mps 723 mmHg 29%
    15:00 +25°C° 0 mm 2 mps 723 mmHg 31%
    16:00 +24°C° 0 mm 2 mps 723 mmHg 33%
    17:00 +24°C° 0 mm 1 mps 722 mmHg 35%
    18:00 +22°C° 0 mm 1 mps 723 mmHg 41%
    19:00 +19°C° 0 mm 1 mps 723 mmHg 47%
    20:00 +16°C° 0 mm 1 mps 723 mmHg 53%
    21:00 +16°C° 0 mm 1 mps 723 mmHg 55%
    22:00 +16°C° 0 mm 1 mps 723 mmHg 58%
    23:00 +15°C° 0 mm 1 mps 723 mmHg 60%

    Tomorrow, 25 September, Monday

    Time Temperature Precipitation Wind Pressure Humidity
    00:00 +15°C° 0 mm 1 mps 723 mmHg 62%
    01:00 +15°C° 0 mm 1 mps 723 mmHg 65%
    02:00 +14°C° 0 mm 1 mps 723 mmHg 67%
    03:00 +14°C° 0 mm 1 mps 723 mmHg 69%
    04:00 +14°C° 0 mm 1 mps 723 mmHg 71%
    05:00 +14°C° 0 mm 1 mps 723 mmHg 74%
    06:00 +15°C° 0 mm 1 mps 723 mmHg 70%
    07:00 +16°C° 0 mm 1 mps 723 mmHg 65%
    08:00 +18°C° 0 mm 1 mps 723 mmHg 61%
    09:00 +20°C° 0 mm 1 mps 723 mmHg 53%
    10:00 +22°C° 0 mm 1 mps 723 mmHg 44%
    11:00 +24°C° 0 mm 2 mps 724 mmHg 36%
    12:00 +24°C° 0 mm 2 mps 723 mmHg 35%
    13:00 +25°C° 0 mm 2 mps 723 mmHg 34%
    14:00 +25°C° 0 mm 2 mps 723 mmHg 34%
    15:00 +24°C° 0.1 mm 2 mps 722 mmHg 37%
    16:00 +23°C° 0.1 mm 2 mps 722 mmHg 41%
    17:00 +21°C° 0.1 mm 2 mps 722 mmHg 45%
    18:00 +20°C° 0.1 mm 2 mps 722 mmHg 51%
    19:00 +19°C° 0.1 mm 1 mps 723 mmHg 57%
    20:00 +16°C° 0.1 mm 1 mps 723 mmHg 63%
    21:00 +16°C° 0 mm 1 mps 723 mmHg 65%
    22:00 +16°C° 0 mm 1 mps 723 mmHg 68%
    23:00 +15°C° 0 mm 1 mps 723 mmHg 70%

    Day after tomorrow, 26 September, Tuesday

    Time Temperature Precipitation Wind Pressure Humidity
    00:00 +15°C° 0 mm 1 mps 723 mmHg 72%
    01:00 +15°C° 0 mm 1 mps 723 mmHg 74%
    02:00 +14°C° 0 mm 1 mps 723 mmHg 76%
    03:00 +14°C° 0 mm 1 mps 723 mmHg 78%
    04:00 +14°C° 0 mm 1 mps 722 mmHg 80%
    05:00 +13°C° 0 mm 1 mps 722 mmHg 82%
    06:00 +14°C° 0 mm 1 mps 723 mmHg 77%
    07:00 +15°C° 0 mm 1 mps 723 mmHg 72%
    08:00 +18°C° 0 mm 1 mps 723 mmHg 67%
    09:00 +18°C° 0 mm 2 mps 723 mmHg 60%
    10:00 +20°C° 0 mm 2 mps 723 mmHg 52%
    11:00 +23°C° 0 mm 2 mps 723 mmHg 44%
    12:00 +24°C° 0 mm 2 mps 723 mmHg 42%
    13:00 +24°C° 0 mm 2 mps 723 mmHg 40%
    14:00 +25°C° 0 mm 2 mps 723 mmHg 37%
    15:00 +24°C° 0.1 mm 2 mps 723 mmHg 40%
    16:00 +23°C° 0.1 mm 2 mps 723 mmHg 43%
    17:00 +23°C° 0.1 mm 2 mps 722 mmHg 46%
    18:00 +20°C° 0 mm 2 mps 723 mmHg 53%
    19:00 +19°C° 0 mm 1 mps 723 mmHg 61%
    20:00 +16°C° 0 mm 1 mps 723 mmHg 68%
    21:00 +16°C° 0 mm 1 mps 723 mmHg 71%
    22:00 +15°C° 0 mm 1 mps 723 mmHg 74%
    23:00 +14°C° 0 mm 1 mps 723 mmHg 78%

    27 September, Wednesday

    Time Temperature Precipitation Wind Pressure Humidity
    00:00 +14°C° 0 mm 1 mps 724 mmHg 79%
    01:00 +13°C° 0 mm 1 mps 724 mmHg 81%
    02:00 +13°C° 0 mm 1 mps 724 mmHg 83%
    03:00 +13°C° 0 mm 1 mps 724 mmHg 84%
    04:00 +13°C° 0 mm 1 mps 724 mmHg 85%
    05:00 +13°C° 0 mm 1 mps 724 mmHg 86%
    06:00 +14°C° 0 mm 1 mps 724 mmHg 82%
    07:00 +15°C° 0 mm 1 mps 724 mmHg 78%
    08:00 +16°C° 0 mm 2 mps 725 mmHg 73%
    09:00 +18°C° 0 mm 2 mps 725 mmHg 66%
    10:00 +19°C° 0 mm 2 mps 725 mmHg 59%
    11:00 +21°C° 0 mm 2 mps 726 mmHg 52%
    12:00 +21°C° 0 mm 2 mps 725 mmHg 51%
    13:00 +23°C° 0 mm 2 mps 725 mmHg 50%
    14:00 +23°C° 0 mm 2 mps 725 mmHg 49%
    15:00 +23°C° 0.1 mm 2 mps 725 mmHg 50%
    16:00 +21°C° 0.1 mm 2 mps 725 mmHg 51%
    17:00 +21°C° 0.1 mm 2 mps 725 mmHg 53%
    18:00 +19°C° 0.1 mm 2 mps 725 mmHg 60%
    19:00 +17°C° 0.1 mm 2 mps 725 mmHg 68%
    20:00 +15°C° 0.1 mm 2 mps 725 mmHg 76%
    21:00 +15°C° 0 mm 1 mps 725 mmHg 79%
    22:00 +14°C° 0 mm 1 mps 726 mmHg 82%
    23:00 +13°C° 0 mm 1 mps 726 mmHg 85%

    28 September, Thursday

    Time Temperature Precipitation Wind Pressure Humidity
    00:00 +13°C° 0 mm 1 mps 726 mmHg 85%
    01:00 +13°C° 0 mm 1 mps 726 mmHg 86%
    02:00 +13°C° 0 mm 1 mps 726 mmHg 87%
    03:00 +12°C° 0 mm 1 mps 726 mmHg 88%
    04:00 +12°C° 0 mm 1 mps 726 mmHg 88%
    05:00 +12°C° 0 mm 1 mps 726 mmHg 89%
    06:00 +13°C° 0 mm 1 mps 726 mmHg 84%
    07:00 +14°C° 0 mm 2 mps 726 mmHg 80%
    08:00 +15°C° 0 mm 2 mps 727 mmHg 76%
    09:00 +17°C° 0 mm 2 mps 727 mmHg 67%
    10:00 +18°C° 0 mm 2 mps 727 mmHg 58%
    11:00 +20°C° 0 mm 2 mps 727 mmHg 50%
    12:00 +21°C° 0 mm 2 mps 727 mmHg 48%
    13:00 +21°C° 0 mm 2 mps 727 mmHg 46%
    14:00 +21°C° 0 mm 2 mps 726 mmHg 44%
    15:00 +21°C° 0 mm 2 mps 726 mmHg 46%
    16:00 +20°C° 0 mm 2 mps 726 mmHg 48%
    17:00 +20°C° 0 mm 2 mps 726 mmHg 50%
    18:00 +18°C° 0 mm 2 mps 726 mmHg 57%
    19:00 +16°C° 0 mm 2 mps 727 mmHg 65%
    20:00 +14°C° 0 mm 2 mps 727 mmHg 72%
    21:00 +14°C° 0 mm 2 mps 727 mmHg 75%
    22:00 +13°C° 0 mm 1 mps 727 mmHg 78%
    23:00 +12°C° 0 mm 1 mps 727 mmHg 80%

    29 September, Friday

    Time Temperature Precipitation Wind Pressure Humidity
    00:00 +12°C° 0 mm 1 mps 728 mmHg 81%
    01:00 +12°C° 0 mm 1 mps 728 mmHg 82%
    02:00 +10°C° 0 mm 2 mps 728 mmHg 83%
    03:00 +10°C° 0 mm 2 mps 728 mmHg 84%
    04:00 +10°C° 0 mm 2 mps 727 mmHg 85%
    05:00 +9°C° 0 mm 2 mps 727 mmHg 86%
    06:00 +10°C° 0 mm 2 mps 728 mmHg 80%
    07:00 +12°C° 0 mm 2 mps 728 mmHg 75%
    08:00 +13°C° 0 mm 2 mps 728 mmHg 69%
    09:00 +15°C° 0 mm 2 mps 728 mmHg 60%
    10:00 +17°C° 0 mm 2 mps 728 mmHg 50%
    11:00 +19°C° 0 mm 2 mps 728 mmHg 41%
    12:00 +19°C° 0 mm 3 mps 727 mmHg 38%
    13:00 +20°C° 0 mm 3 mps 727 mmHg 36%
    14:00 +21°C° 0 mm 3 mps 727 mmHg 34%
    15:00 +20°C° 0 mm 3 mps 726 mmHg 36%
    16:00 +19°C° 0 mm 3 mps 726 mmHg 38%
    17:00 +19°C° 0 mm 3 mps 726 mmHg 41%
    18:00 +16°C° 0 mm 3 mps 726 mmHg 49%
    19:00 +14°C° 0 mm 2 mps 726 mmHg 58%
    20:00 +12°C° 0 mm 2 mps 726 mmHg 66%
    21:00 +10°C° 0 mm 2 mps 726 mmHg 69%
    22:00 +10°C° 0 mm 2 mps 726 mmHg 72%
    23:00 +9°C° 0 mm 2 mps 726 mmHg 75%
    Show more